Change the Weather History Date:

Tuesday, December 11, 2012

  Actual Average Record
Temperature  
Mean Temperature 29 °F 37 °F  
Max Temperature 42 °F 47 °F 71 °F (1949)
Min Temperature 15 °F 27 °F 1 °F (1995)
Degree Days  
Heating Degree Days 36 28  
Month to date heating degree days 174 293  
Since 1 July heating degree days 1118 1145  
Cooling Degree Days 0 0  
Month to date cooling degree days 0 0  
Year to date cooling degree days 1739 1354  
Moisture  
Dew Point 16 °F    
Average Humidity 65    
Maximum Humidity 85    
Minimum Humidity 38    
Precipitation  
Precipitation 0.00 in 0.14 in 1.87 in (1965)
Month to date precipitation 0.54 1.67  
Year to date precipitation 30.46 44.25  
Sea Level Pressure  
Sea Level Pressure 30.17 in    
Wind  
Wind Speed 3 mph (SSW)    
Max Wind Speed 18 mph    
Max Gust Speed 107 mph    
Visibility 10 miles    
Events      
T = Trace of Precipitation, MM = Missing Value Source: NWS Daily Summary

Daily Weather History Graph

Daily Weather History Graph

Search for Another Location

Airport or City:

Trip Planner

Search our weather history database for the weather conditions in past years. The results will help you decide how hot, cold, wet, or windy it might be!

Date:

Astronomy

Dec. 11, 2012 Rise Set
Actual Time 7:10 AM CST 4:51 PM CST
Civil Twilight 6:41 AM CST 5:20 PM CST
Nautical Twilight 6:09 AM CST 5:52 PM CST
Astronomical Twilight 5:37 AM CST 6:24 PM CST
Moon 5:07 AM CST (12/11) 3:29 PM CST (12/11)
Length of Visible Light 10h 38m
Length of Day
9h 40m
Waning Crescent, 4% of the Moon is Illuminated
Dec 11
Waning Crescent
Dec 13
New
Dec 19
First Quarter
Dec 28
Full
Jan 4
Last Quarter

Hourly Weather History & Observations

Time (CST) Temp. Windchill Dew Point Humidity Pressure Visibility Wind Dir Wind Speed Gust Speed Precip Events Conditions
12:53 AM 19.0 °F - 15.1 °F 85% 30.11 in 10.0 mi Calm Calm - N/A   Clear
1:53 AM 17.1 °F - 12.9 °F 84% 30.13 in 8.0 mi Calm Calm - N/A   Clear
2:53 AM 16.0 °F 8.8 °F 12.0 °F 84% 30.12 in 8.0 mi Variable 4.6 mph 107.0 mph N/A   Clear
3:53 AM 17.1 °F - 12.9 °F 84% 30.12 in 9.0 mi Calm Calm - N/A   Clear
4:53 AM 16.0 °F - 12.0 °F 84% 30.12 in 10.0 mi Calm Calm - N/A   Clear
5:53 AM 17.1 °F - 12.9 °F 84% 30.13 in 10.0 mi Calm Calm - N/A   Clear
6:53 AM 17.1 °F - 12.0 °F 81% 30.15 in 8.0 mi Calm Calm - N/A   Clear
7:53 AM 19.9 °F - 16.0 °F 85% 30.19 in 8.0 mi Calm Calm - N/A   Clear
8:53 AM 24.1 °F 17.0 °F 19.0 °F 81% 30.20 in 10.0 mi SW 5.8 mph - N/A   Clear
9:53 AM 28.0 °F 21.7 °F 21.0 °F 75% 30.21 in 10.0 mi South 5.8 mph - N/A   Clear
10:53 AM 32.0 °F 26.4 °F 21.0 °F 64% 30.21 in 10.0 mi SSW 5.8 mph - N/A   Clear
11:53 AM 35.1 °F 28.6 °F 21.0 °F 57% 30.19 in 10.0 mi SW 8.1 mph - N/A   Clear
12:53 PM 39.0 °F 34.0 °F 19.0 °F 45% 30.16 in 10.0 mi SW 6.9 mph - N/A   Clear
1:53 PM 39.9 °F 34.5 °F 19.9 °F 45% 30.14 in 10.0 mi SSW 8.1 mph - N/A   Clear
2:53 PM 41.0 °F 35.8 °F 17.1 °F 38% 30.13 in 10.0 mi South 8.1 mph - N/A   Clear
3:53 PM 41.0 °F 36.4 °F 18.0 °F 40% 30.14 in 10.0 mi SSW 6.9 mph - N/A   Clear
4:53 PM 37.0 °F 34.5 °F 17.1 °F 44% 30.16 in 10.0 mi SSW 3.5 mph - N/A   Clear
5:53 PM 32.0 °F 28.7 °F 17.1 °F 54% 30.19 in 10.0 mi SSW 3.5 mph - N/A   Clear
6:53 PM 30.9 °F - 16.0 °F 54% 30.19 in 10.0 mi Calm Calm - N/A   Clear
7:53 PM 28.9 °F 25.2 °F 17.1 °F 61% 30.21 in 10.0 mi South 3.5 mph - N/A   Clear
8:53 PM 30.9 °F 27.5 °F 14.0 °F 50% 30.22 in 10.0 mi South 3.5 mph - N/A   Clear
9:53 PM 30.0 °F - 14.0 °F 51% 30.23 in 10.0 mi Calm Calm - N/A   Clear
10:53 PM 28.9 °F - 15.1 °F 56% 30.25 in 10.0 mi Calm Calm - N/A   Clear
11:53 PM 26.1 °F - 15.1 °F 63% 30.25 in 10.0 mi Calm Calm - N/A   Clear